Home > Time Zones > World Clock > Weather > Italy > Rome > Past weeks

Flag for Italy Weather past 2 weeks in Rome, Italy

Now
63 °F

Passing clouds.


Feels Like: 63 °F
Forecast: 49 / 73 °F
Wind: No wind

Location: Rome / Ciampino

Current Time: Oct 21, 2014 at 5:14:19 AM

Latest Report: Oct 21, 2014 at 4:55 AM


Visibility: N/A

Pressure: 29.98 "Hg

Humidity: 88%

Dew point: 59 °F

Location of RomeLocation

Historic Weather in Rome — Graph

°F

Rome temperature yesterday

Maximum temperature yesterday: 79 °F (at 3:15 PM)
Minimum temperature yesterday: 61 °F (at 5:15 AM)
Average temperature yesterday: 69 °F

Past Weeks' High & Low Weather Summary

 TemperatureHumidityPressure
High81 °F (Oct 13, 1:15 PM)94% (Oct 6, 5:15 AM)30.27 "Hg (Oct 6, 5:15 AM)
Low55 °F (Oct 6, 7:15 AM)36% (Oct 11, 11:45 AM)29.74 "Hg (Oct 15, 4:45 AM)
Average70 °F75%30.03 "Hg
* Reported Oct 6 3:15 AM — Oct 21 3:55 AM, Rome, Weather by CustomWeather, © 2014

Note: Actual official high and low records may vary slightly from our data, if they occured in-between our weather recording intervals... More about our weather records

Advertising

Rome weather history for previous 24 hours

 ConditionsComfort  
Time TempWeatherWind HumidityBarometerVisibility
3:55 AM
Oct 21
64 °FPassing clouds.1 mph88%30.01 "HgN/A
3:15 AM64 °FPassing clouds.1 mph88%30.04 "HgN/A
2:55 AM64 °FPassing clouds.No wind88%30.04 "HgN/A
2:15 AM63 °FPassing clouds.No wind94%30.04 "HgN/A
1:55 AM64 °FPassing clouds.No wind88%30.04 "HgN/A
12:55 AM64 °FPassing clouds.3 mph88%30.07 "HgN/A
12:15 AM64 °FPassing clouds.2 mph88%30.07 "HgN/A
11:55 PM
Oct 20
64 °FPassing clouds.1 mph88%30.07 "HgN/A
11:15 PM64 °FPassing clouds.1 mph88%30.07 "HgN/A
10:55 PM64 °FPassing clouds.1 mph88%30.09 "HgN/A
10:15 PM66 °FClear.No wind88%30.09 "Hg10 mi
9:55 PM68 °FClear.2 mph88%30.09 "Hg10 mi
9:15 PM68 °FClear.No wind88%30.09 "Hg10 mi
8:55 PM68 °FClear.2 mph88%30.09 "Hg10 mi
8:15 PM68 °FClear.2 mph88%30.09 "Hg10 mi
7:55 PM68 °FClear.2 mph88%30.09 "Hg10 mi
7:15 PM70 °FPassing clouds.2 mph83%30.09 "HgN/A
6:45 PM72 °FSunny.1 mph78%30.09 "Hg10 mi
6:15 PM72 °FPassing clouds.1 mph78%30.09 "HgN/A
5:45 PM73 °FMild.6 mph74%30.09 "HgN/A
5:15 PM75 °FPassing clouds.6 mph69%30.09 "HgN/A
4:45 PM75 °FPassing clouds.7 mph69%30.09 "HgN/A
4:15 PM77 °FPassing clouds.7 mph61%30.09 "HgN/A
3:45 PM79 °FPassing clouds.7 mph54%30.09 "HgN/A
3:15 PM79 °FPassing clouds.7 mph54%30.12 "HgN/A
2:45 PM77 °FPassing clouds.6 mph54%30.12 "HgN/A
2:15 PM77 °FPassing clouds.3 mph54%30.12 "HgN/A
1:45 PM77 °FScattered clouds.3 mph57%30.15 "HgN/A
1:15 PM75 °FScattered clouds.3 mph69%30.15 "HgN/A
12:45 PM75 °FPassing clouds.2 mph65%30.21 "HgN/A
12:15 PM75 °FPassing clouds.2 mph65%30.21 "HgN/A
11:45 AM73 °FPassing clouds.1 mph69%30.21 "HgN/A
10:45 AM68 °FPassing clouds.1 mph78%30.21 "HgN/A
10:15 AM66 °FPassing clouds.1 mph83%30.21 "HgN/A
9:45 AM63 °FSunny.2 mph88%30.21 "Hg6 mi
9:15 AM63 °FSunny.1 mph94%30.21 "Hg6 mi
8:45 AM63 °FSunny.1 mph88%30.21 "Hg6 mi
8:15 AM61 °FPassing clouds.No wind88%30.21 "Hg6 mi
7:45 AM61 °FPassing clouds.1 mph88%30.21 "Hg6 mi
7:15 AM61 °FPassing clouds.1 mph94%30.21 "Hg6 mi
5:15 AM61 °FCool.No wind94%30.21 "HgN/A
Weather by CustomWeather, © 2014

See weather overviewHow to use our weather pages